CW2195 Weather Reports


time (UTC)temp
C
wind
direction
speed
KPH
gust
KPH
rain 1hr
cm
rain 24hr
cm
rain mn
cm
humidity
%
barometer
mb
20260508033503 12 333 1.6 12.9 0.00 0.00 0.00 51 1015.2
20260508032503 12 341 4.8 14.5 0.00 0.00 0.00 50 1015.0
20260508032003 12 346 3.2 14.5 0.00 0.00 0.00 50 1015.0
20260508031006 13 320 1.6 8.0 0.00 0.00 0.00 51 1014.9
20260508030503 13 0 1.6 12.9 0.00 0.00 0.00 50 1014.8
20260508030003 13 358 1.6 12.9 0.00 0.00 0.00 50 1014.8
20260508025503 13 3 1.6 9.7 0.00 0.00 0.00 49 1014.8
20260508025003 13 334 4.8 9.7 0.00 0.00 0.00 49 1014.8
20260508024503 13 3 3.2 12.9 0.00 0.03 0.00 50 1014.8
20260508024003 13 327 1.6 12.9 0.00 0.03 0.00 50 1014.6
20260508023503 13 314 6.4 12.9 0.00 0.03 0.00 50 1014.6
20260508023003 13 348 3.2 14.5 0.00 0.03 0.00 50 1014.5
20260508022502 13 338 3.2 14.5 0.00 0.03 0.00 51 1014.5
20260508022003 13 333 6.4 14.5 0.00 0.03 0.00 51 1014.4
20260508021503 13 340 1.6 8.0 0.00 0.03 0.00 52 1014.4
20260508021002 13 327 0.0 4.8 0.00 0.03 0.00 53 1014.2
20260508020503 13 327 0.0 8.0 0.00 0.03 0.00 53 1014.1
20260508020003 13 9 1.6 8.0 0.00 0.03 0.00 53 1013.9
20260508015503 13 355 1.6 4.8 0.00 0.05 0.00 54 1013.9
20260508015003 13 345 1.6 4.8 0.00 0.05 0.00 54 1013.7
20260508014503 13 334 3.2 4.8 0.00 0.05 0.00 55 1013.6
20260508014003 13 355 0.0 4.8 0.00 0.05 0.00 55 1013.5
20260508013503 13 355 0.0 3.2 0.00 0.05 0.00 55 1013.5
20260508013003 13 355 0.0 3.2 0.00 0.05 0.00 54 1013.5
20260508012003 13 355 0.0 3.2 0.00 0.05 0.00 54 1013.3
20260508011503 13 355 0.0 1.6 0.00 0.05 0.00 54 1013.2
20260508011003 14 355 0.0 3.2 0.00 0.05 0.00 53 1013.2
20260508010504 14 355 0.0 4.8 0.00 0.05 0.00 53 1013.1
20260508010003 14 5 1.6 4.8 0.00 0.05 0.00 53 1013.0
20260508005503 14 355 0.0 4.8 0.00 0.05 0.00 53 1012.9
20260508005003 14 0 1.6 4.8 0.00 0.05 0.00 53 1012.8
20260508004504 14 5 1.6 8.0 0.00 0.05 0.00 53 1012.8
20260508004003 14 340 3.2 8.0 0.00 0.05 0.00 54 1012.9
20260508003503 14 344 0.0 4.8 0.00 0.05 0.00 53 1012.8
20260508003003 15 355 0.0 4.8 0.00 0.05 0.00 52 1012.8
20260508002502 15 350 0.0 3.2 0.00 0.05 0.00 53 1012.7
20260508002004 15 351 0.0 3.2 0.00 0.05 0.00 53 1012.6
20260508001502 15 350 0.0 0.0 0.00 0.05 0.00 55 1012.7
20260508001003 15 350 0.0 4.8 0.00 0.05 0.00 53 1012.6
20260508000503 15 350 0.0 8.0 0.00 0.05 0.00 53 1012.5
20260508000003 15 350 3.2 12.9 0.00 0.05 0.00 52 1012.5
20260507235503 15 331 4.8 12.9 0.00 0.05 0.00 52 1012.4
20260507235003 15 346 3.2 8.0 0.00 0.05 0.00 52 1012.4
20260507234504 16 315 3.2 8.0 0.00 0.05 0.00 53 1012.3
20260507234003 16 322 3.2 12.9 0.00 0.05 0.00 52 1012.2
20260507233503 16 358 3.2 12.9 0.00 0.05 0.00 53 1012.1
20260507233003 16 347 4.8 12.9 0.00 0.05 0.00 53 1012.1
20260507232502 16 341 3.2 8.0 0.00 0.05 0.00 51 1011.7
20260507232003 16 355 3.2 8.0 0.00 0.05 0.00 52 1011.8
20260507231503 16 5 0.0 4.8 0.00 0.05 0.00 54 1011.7
20260507231003 16 355 1.6 8.0 0.00 0.05 0.00 53 1011.6
20260507230005 17 324 1.6 14.5 0.00 0.05 0.00 50 1011.5
20260507225503 17 327 8.0 14.5 0.00 0.05 0.00 49 1011.4
20260507225003 17 340 4.8 16.1 0.00 0.05 0.00 49 1011.4
20260507224503 17 260 4.8 16.1 0.00 0.05 0.00 49 1011.3
20260507224003 17 351 4.8 16.1 0.00 0.05 0.00 53 1011.2
20260507223003 17 264 9.7 20.9 0.00 0.05 0.00 49 1011.3
20260507222503 17 334 6.4 19.3 0.00 0.05 0.00 49 1011.2
20260507222003 17 340 4.8 19.3 0.00 0.05 0.00 52 1011.1
20260507221002 18 226 8.0 19.3 0.00 0.05 0.00 49 1011.1
20260507220503 18 310 8.0 24.1 0.00 0.05 0.00 50 1011.0
20260507220003 18 324 11.3 24.1 0.00 0.05 0.00 49 1010.8
20260507215502 18 337 4.8 12.9 0.00 0.05 0.00 53 1010.7
20260507215003 17 252 4.8 9.7 0.00 0.05 0.00 55 1010.7
20260507214503 17 346 1.6 4.8 0.00 0.05 0.00 59 1010.7
20260507214003 17 235 1.6 12.9 0.00 0.05 0.00 60 1010.7
20260507213503 17 225 4.8 12.9 0.00 0.05 0.00 60 1010.6
20260507213003 16 184 4.8 12.9 0.00 0.05 0.00 62 1010.6
20260507212503 16 249 3.2 9.7 0.00 0.05 0.00 63 1010.6
20260507212002 16 215 3.2 8.0 0.00 0.05 0.00 66 1010.6
20260507211503 16 191 3.2 8.0 0.00 0.05 0.00 66 1010.6
20260507211003 16 205 3.2 8.0 0.00 0.05 0.00 66 1010.6
20260507210503 16 172 0.0 9.7 0.00 0.05 0.00 65 1010.5
20260507210004 16 231 3.2 12.9 0.00 0.05 0.00 66 1010.5
20260507205503 17 195 4.8 12.9 0.00 0.05 0.00 64 1010.5
20260507205003 17 206 6.4 12.9 0.00 0.05 0.00 63 1010.4
20260507203504 17 188 8.0 19.3 0.00 0.05 0.00 61 1010.4
20260507203004 17 343 3.2 12.9 0.00 0.05 0.00 63 1010.3
20260507202502 17 0 1.6 11.3 0.00 0.05 0.00 64 1010.4
20260507201503 17 183 3.2 11.3 0.00 0.05 0.00 66 1010.5
20260507201003 16 164 1.6 11.3 0.00 0.05 0.00 69 1010.6
20260507200009 15 231 3.2 11.3 0.00 0.08 0.00 72 1010.6
20260507195503 15 170 3.2 11.3 0.00 0.08 0.00 72 1011.0
20260507194003 15 193 4.8 11.3 0.00 0.08 0.00 71 1011.4
20260507193503 15 253 1.6 8.0 0.00 0.08 0.00 71 1011.5
20260507193003 15 311 4.8 8.0 0.00 0.08 0.00 72 1011.6
20260507192503 15 354 3.2 8.0 0.00 0.08 0.00 73 1011.7
20260507191502 14 283 1.6 4.8 0.00 0.08 0.00 73 1011.6
20260507191003 13 339 1.6 4.8 0.00 0.08 0.00 75 1011.7
20260507190503 13 242 1.6 4.8 0.00 0.08 0.00 73 1011.6
20260507190004 14 246 1.6 4.8 0.00 0.08 0.00 76 1011.7
20260507185503 13 342 0.0 3.2 0.00 0.08 0.00 75 1011.9
20260507185003 13 342 0.0 4.8 0.00 0.08 0.00 76 1011.9
20260507184502 13 342 1.6 4.8 0.00 0.08 0.00 75 1012.0
20260507183503 13 336 1.6 4.8 0.00 0.08 0.00 77 1012.0
20260507183003 13 290 0.0 4.8 0.00 0.08 0.00 76 1012.0
20260507182503 13 290 1.6 4.8 0.00 0.08 0.00 78 1012.1
20260507181504 14 55 0.0 3.2 0.00 0.08 0.00 80 1012.0
20260507181004 13 25 0.0 3.2 0.00 0.08 0.00 80 1011.8
20260507180503 13 19 0.0 1.6 0.00 0.08 0.00 79 1012.2
20260507180003 13 19 0.0 1.6 0.00 0.08 0.00 79 1012.0
20260507175503 13 9 0.0 3.2 0.00 0.08 0.00 79 1012.0
20260507175003 13 9 0.0 8.0 0.00 0.08 0.00 78 1012.1
20260507174003 13 0 1.6 4.8 0.00 0.08 0.00 79 1012.0
20260507173503 13 69 1.6 4.8 0.00 0.08 0.00 79 1012.0
20260507173004 13 43 0.0 4.8 0.00 0.08 0.00 78 1012.2
20260507172503 13 0 3.2 8.0 0.00 0.08 0.00 78 1012.4
20260507172006 13 355 3.2 9.7 0.00 0.08 0.00 77 1012.3
20260507171503 13 332 4.8 16.1 0.00 0.08 0.00 77 1012.3
20260507170504 13 353 3.2 12.9 0.00 0.08 0.00 78 1012.3
20260507170003 13 357 4.8 14.5 0.00 0.08 0.00 78 1012.4
20260507164504 13 349 4.8 9.7 0.00 0.08 0.00 79 1012.3
20260507164004 13 350 3.2 8.0 0.00 0.08 0.00 79 1012.2
20260507163503 13 355 0.0 8.0 0.00 0.08 0.00 79 1012.1
20260507163003 14 16 0.0 4.8 0.00 0.08 0.00 80 1012.3
20260507162503 13 15 0.0 8.0 0.00 0.08 0.00 78 1012.3
20260507161503 13 343 3.2 9.7 0.00 0.08 0.00 79 1012.3
20260507161003 13 352 1.6 8.0 0.00 0.08 0.00 79 1012.3
20260507160503 13 0 1.6 4.8 0.00 0.08 0.00 79 1012.4
20260507160003 13 351 1.6 4.8 0.00 0.08 0.00 79 1012.4
20260507155503 13 8 3.2 11.3 0.00 0.08 0.00 79 1012.4
20260507155003 13 355 3.2 12.9 0.00 0.08 0.00 78 1012.5
20260507154003 14 346 3.2 8.0 0.00 0.08 0.00 76 1012.6
20260507153504 14 10 1.6 4.8 0.00 0.08 0.00 76 1012.6
20260507153003 14 357 3.2 8.0 0.00 0.08 0.00 76 1012.6
20260507152504 14 38 1.6 9.7 0.00 0.08 0.00 76 1012.5
20260507152003 14 357 1.6 9.7 0.00 0.08 0.00 75 1012.6
20260507151504 14 15 1.6 9.7 0.00 0.08 0.00 75 1012.5
20260507151003 14 2 1.6 9.7 0.00 0.08 0.00 76 1012.6
20260507150503 14 37 3.2 12.9 0.00 0.08 0.00 76 1012.5
20260507150004 14 355 1.6 12.9 0.00 0.08 0.00 75 1012.6
20260507145503 14 0 1.6 12.9 0.00 0.08 0.00 75 1012.5
20260507145003 14 355 0.0 8.0 0.00 0.08 0.00 76 1012.5
20260507144503 14 355 1.6 8.0 0.00 0.08 0.00 75 1012.5
20260507144003 15 2 3.2 4.8 0.00 0.08 0.00 74 1012.5
20260507143503 14 0 0.0 14.5 0.00 0.08 0.00 75 1012.4
20260507143004 14 353 6.4 14.5 0.00 0.08 0.00 74 1012.3
20260507142503 15 357 1.6 12.9 0.00 0.08 0.00 74 1012.4
20260507142003 15 356 4.8 16.1 0.00 0.08 0.00 73 1012.5
20260507141503 15 324 4.8 16.1 0.00 0.08 0.00 74 1012.4
20260507140503 15 4 3.2 9.7 0.00 0.08 0.00 73 1012.2
20260507140003 15 359 3.2 9.7 0.00 0.08 0.00 73 1012.0
20260507135503 15 355 1.6 16.1 0.00 0.08 0.00 73 1012.3
20260507135003 15 16 3.2 16.1 0.00 0.08 0.00 73 1012.5
20260507134502 15 34 3.2 14.5 0.00 0.08 0.00 74 1012.7
20260507134003 15 347 6.4 14.5 0.00 0.08 0.00 74 1012.7
20260507133503 15 11 1.6 9.7 0.00 0.08 0.00 75 1012.7
20260507133003 15 355 1.6 9.7 0.00 0.08 0.00 75 1012.6
20260507132503 15 345 3.2 9.7 0.00 0.10 0.00 74 1012.6
20260507132004 15 6 3.2 12.9 0.00 0.10 0.00 74 1012.6
20260507131503 15 1 4.8 12.9 0.00 0.10 0.00 74 1012.8
20260507131004 15 358 3.2 12.9 0.00 0.10 0.00 74 1012.8
20260507130003 15 352 3.2 14.5 0.00 0.10 0.00 75 1012.4
20260507125503 15 4 4.8 14.5 0.00 0.10 0.00 76 1012.5
20260507125003 15 341 1.6 8.0 0.00 0.10 0.00 76 1012.5
20260507124503 15 2 3.2 9.7 0.00 0.10 0.00 76 1012.5
20260507124002 15 16 3.2 9.7 0.00 0.10 0.00 76 1012.5
20260507123503 15 12 1.6 12.9 0.00 0.10 0.00 77 1012.5
20260507123004 15 356 3.2 16.1 0.00 0.10 0.00 77 1012.5
20260507122503 15 17 4.8 16.1 0.00 0.10 0.00 76 1012.6
20260507122004 15 358 4.8 16.1 0.00 0.10 0.00 76 1012.6
20260507121503 15 352 4.8 9.7 0.00 0.10 0.00 77 1012.5
20260507121004 15 10 3.2 8.0 0.00 0.10 0.00 77 1012.5
20260507120503 15 6 3.2 4.8 0.00 0.10 0.00 77 1012.7
20260507120004 15 10 3.2 4.8 0.00 0.10 0.00 77 1012.5
20260507115507 15 350 1.6 4.8 0.00 0.10 0.00 78 1012.6
20260507115003 15 342 1.6 8.0 0.00 0.10 0.00 79 1012.4
20260507113004 15 345 0.0 4.8 0.00 0.10 0.00 78 1012.3
20260507112503 15 0 0.0 4.8 0.00 0.10 0.00 78 1012.0
20260507112004 15 339 1.6 12.9 0.00 0.10 0.00 78 1012.0
20260507111503 15 341 1.6 12.9 0.00 0.10 0.00 78 1011.9
20260507111003 15 354 3.2 12.9 0.00 0.10 0.00 78 1011.7
20260507110503 15 12 1.6 4.8 0.00 0.10 0.00 79 1011.6
20260507110004 15 19 1.6 4.8 0.00 0.10 0.00 78 1011.7
20260507105503 15 15 1.6 4.8 0.00 0.10 0.00 78 1011.5
20260507104504 15 0 1.6 4.8 0.00 0.10 0.00 78 1011.6
20260507104004 15 19 0.0 3.2 0.00 0.10 0.00 78 1011.8
20260507103502 15 17 0.0 4.8 0.00 0.10 0.00 78 1011.7
20260507103004 15 17 1.6 4.8 0.00 0.10 0.00 78 1011.7
20260507102503 15 32 0.0 3.2 0.00 0.10 0.00 78 1011.4
20260507102003 15 53 0.0 3.2 0.00 0.10 0.00 79 1011.5
20260507101504 15 53 0.0 4.8 0.00 0.10 0.00 79 1011.4
20260507101003 15 74 0.0 4.8 0.00 0.10 0.00 79 1011.5
20260507100503 15 63 1.6 4.8 0.00 0.10 0.00 79 1011.5
20260507100003 15 49 1.6 4.8 0.00 0.10 0.00 79 1011.4
20260507095503 15 59 0.0 4.8 0.00 0.10 0.00 79 1011.5
20260507095003 15 64 0.0 4.8 0.00 0.10 0.00 78 1011.7
20260507094003 15 56 1.6 9.7 0.00 0.10 0.00 78 1011.6
20260507093004 15 63 1.6 4.8 0.00 0.10 0.00 79 1011.7
20260507092503 15 74 0.0 3.2 0.00 0.10 0.00 79 1011.8
20260507092003 15 23 0.0 3.2 0.00 0.10 0.00 80 1011.7
20260507091503 15 16 0.0 4.8 0.00 0.10 0.00 79 1011.5
20260507091003 15 16 0.0 4.8 0.00 0.10 0.00 78 1011.3
20260507090503 15 355 0.0 4.8 0.00 0.10 0.00 78 1010.9
20260507090005 15 356 1.6 8.0 0.00 0.10 0.00 79 1010.9
20260507085503 15 354 1.6 8.0 0.00 0.10 0.00 79 1011.0
20260507085003 16 21 3.2 8.0 0.00 0.10 0.00 80 1011.3
20260507084504 16 325 0.0 3.2 0.00 0.10 0.00 79 1011.2
20260507084003 16 336 0.0 3.2 0.00 0.10 0.00 79 1011.4
20260507083503 16 335 0.0 3.2 0.00 0.10 0.00 79 1011.7
20260507083005 16 335 0.0 1.6 0.00 0.10 0.00 79 1011.6
20260507082503 16 335 0.0 3.2 0.00 0.10 0.00 79 1011.7
20260507082003 16 335 1.6 3.2 0.00 0.10 0.00 79 1011.5
20260507081503 16 335 0.0 1.6 0.00 0.10 0.00 79 1011.4
20260507081003 16 335 0.0 0.0 0.00 0.10 0.00 79 1011.6
20260507080503 16 335 0.0 0.0 0.00 0.10 0.00 79 1011.6
20260507080003 16 335 0.0 4.8 0.00 0.10 0.00 78 1011.5
20260507075003 16 335 1.6 9.7 0.00 0.10 0.00 77 1011.6
20260507072503 16 286 8.0 14.5 0.00 0.10 0.00 79 1011.3
20260507072002 16 344 1.6 8.0 0.00 0.10 0.00 80 1011.2
20260507071504 16 355 3.2 4.8 0.00 0.10 0.00 82 1011.3
20260507070504 17 355 0.0 1.6 0.00 0.10 0.00 84 1010.9
20260507070008 17 355 0.0 4.8 0.00 0.10 0.00 83 1011.1
20260507065503 17 355 0.0 4.8 0.00 0.10 0.00 83 1011.2
20260507064003 17 0 0.0 4.8 0.00 0.10 0.00 87 1011.4
20260507063503 17 355 1.6 4.8 0.00 0.10 0.00 87 1011.4